Time,TemperatureF,DewpointF,PressureIn,WindDirection,WindDirectionDegrees,WindSpeedMPH,WindSpeedGustMPH,Humidity,HourlyPrecipIn,Conditions,Clouds,dailyrainin,SoftwareType,DateUTC
2013-05-19 00:03:00,52.6,52.0,30.17,WSW,255,0.0,-999.0,96,-99.99,,,0.03,weatherlink.com 1.10,2013-05-19 07:03:00,
2013-05-19 00:18:00,52.3,51.0,30.18,WSW,255,0.0,-999.0,96,-99.99,,,0.00,weatherlink.com 1.10,2013-05-19 07:18:00,
2013-05-19 00:33:00,52.6,52.0,30.18,WSW,255,0.0,-999.0,96,-99.99,,,0.00,weatherlink.com 1.10,2013-05-19 07:33:00,
2013-05-19 00:48:00,52.8,52.0,30.19,WSW,254,0.0,-999.0,96,-99.99,,,0.00,weatherlink.com 1.10,2013-05-19 07:48:00,
2013-05-19 01:03:00,52.6,52.0,30.19,WSW,254,0.0,-999.0,96,-99.99,,,0.00,weatherlink.com 1.10,2013-05-19 08:03:00,
2013-05-19 01:18:00,52.8,52.0,30.19,WSW,254,0.0,-999.0,96,-99.99,,,0.00,weatherlink.com 1.10,2013-05-19 08:18:00,
2013-05-19 01:33:00,52.8,52.0,30.18,WSW,254,0.0,-999.0,96,-99.99,,,0.00,weatherlink.com 1.10,2013-05-19 08:33:00,
2013-05-19 01:48:00,52.5,51.0,30.18,WSW,254,0.0,-999.0,96,-99.99,,,0.00,weatherlink.com 1.10,2013-05-19 08:48:00,
2013-05-19 02:03:00,52.3,51.0,30.20,WSW,254,0.0,-999.0,96,-99.99,,,0.00,weatherlink.com 1.10,2013-05-19 09:03:00,
2013-05-19 02:18:00,52.3,52.0,30.20,WSW,254,0.0,-999.0,97,-99.99,,,0.00,weatherlink.com 1.10,2013-05-19 09:18:00,
2013-05-19 02:33:00,52.6,52.0,30.20,WSW,254,0.0,-999.0,96,-99.99,,,0.00,weatherlink.com 1.10,2013-05-19 09:33:00,
2013-05-19 02:48:00,52.5,51.0,30.20,WSW,254,0.0,-999.0,96,-99.99,,,0.00,weatherlink.com 1.10,2013-05-19 09:48:00,
2013-05-19 03:03:00,52.0,51.0,30.21,WSW,254,0.0,-999.0,96,-99.99,,,0.00,weatherlink.com 1.10,2013-05-19 10:03:00,
2013-05-19 03:18:00,51.6,51.0,30.21,WSW,254,0.0,-999.0,96,-99.99,,,0.00,weatherlink.com 1.10,2013-05-19 10:18:00,
2013-05-19 03:33:00,51.6,51.0,30.21,WSW,258,0.0,-999.0,96,-99.99,,,0.00,weatherlink.com 1.10,2013-05-19 10:33:00,
2013-05-19 03:48:00,51.4,50.0,30.21,WSW,249,0.0,-999.0,96,-99.99,,,0.00,weatherlink.com 1.10,2013-05-19 10:48:00,
2013-05-19 04:03:00,51.9,51.0,30.21,WSW,242,0.0,-999.0,96,-99.99,,,0.00,weatherlink.com 1.10,2013-05-19 11:03:00,
2013-05-19 04:18:00,51.9,51.0,30.22,WSW,244,0.0,-999.0,95,-99.99,,,0.00,weatherlink.com 1.10,2013-05-19 11:18:00,
2013-05-19 04:33:00,51.6,50.0,30.23,WSW,244,0.0,-999.0,95,-99.99,,,0.00,weatherlink.com 1.10,2013-05-19 11:33:00,
2013-05-19 04:48:00,51.3,50.0,30.23,WSW,238,0.0,-999.0,95,-99.99,,,0.00,weatherlink.com 1.10,2013-05-19 11:48:00,
2013-05-19 05:03:00,51.3,50.0,30.23,SW,234,0.0,-999.0,94,-99.99,,,0.00,weatherlink.com 1.10,2013-05-19 12:03:00,
2013-05-19 05:18:00,51.3,49.0,30.23,West,276,2.0,-999.0,93,-99.99,,,0.00,weatherlink.com 1.10,2013-05-19 12:18:00,
2013-05-19 05:33:00,51.3,49.0,30.23,SW,226,0.0,-999.0,92,-99.99,,,0.00,weatherlink.com 1.10,2013-05-19 12:33:00,
2013-05-19 05:48:00,51.3,49.0,30.24,WSW,251,0.0,-999.0,93,-99.99,,,0.00,weatherlink.com 1.10,2013-05-19 12:48:00,
2013-05-19 06:03:00,51.0,49.0,30.24,WSW,254,0.0,-999.0,92,-99.99,,,0.00,weatherlink.com 1.10,2013-05-19 13:03:00,
2013-05-19 06:18:00,51.1,49.0,30.24,WNW,286,1.0,-999.0,91,-99.99,,,0.00,weatherlink.com 1.10,2013-05-19 13:18:00,
2013-05-19 06:33:00,51.1,49.0,30.24,SW,219,0.0,-999.0,91,-99.99,,,0.00,weatherlink.com 1.10,2013-05-19 13:33:00,
2013-05-19 06:48:00,51.3,49.0,30.24,WSW,241,0.0,-999.0,90,-99.99,,,0.00,weatherlink.com 1.10,2013-05-19 13:48:00,
2013-05-19 07:03:00,51.4,49.0,30.24,WSW,240,1.0,-999.0,90,-99.99,,,0.00,weatherlink.com 1.10,2013-05-19 14:03:00,
2013-05-19 07:18:00,51.6,48.0,30.25,WNW,286,0.0,-999.0,88,-99.99,,,0.00,weatherlink.com 1.10,2013-05-19 14:18:00,
2013-05-19 07:33:00,52.0,49.0,30.26,WSW,252,0.0,-999.0,89,-99.99,,,0.00,weatherlink.com 1.10,2013-05-19 14:33:00,
2013-05-19 07:48:00,52.8,49.0,30.26,SW,234,1.0,-999.0,87,-99.99,,,0.00,weatherlink.com 1.10,2013-05-19 14:48:00,
2013-05-19 08:03:00,52.9,49.0,30.27,NNW,335,0.0,-999.0,85,-99.99,,,0.00,weatherlink.com 1.10,2013-05-19 15:03:00,
2013-05-19 08:18:00,53.2,49.0,30.27,WSW,250,0.0,-999.0,84,-99.99,,,0.00,weatherlink.com 1.10,2013-05-19 15:18:00,
2013-05-19 08:33:00,53.8,49.0,30.27,SW,229,4.0,-999.0,83,-99.99,,,0.00,weatherlink.com 1.10,2013-05-19 15:33:00,
2013-05-19 08:48:00,54.4,49.0,30.27,WSW,249,2.0,-999.0,81,-99.99,,,0.00,weatherlink.com 1.10,2013-05-19 15:48:00,
2013-05-19 09:03:00,54.8,49.0,30.27,West,263,0.0,-999.0,80,-99.99,,,0.00,weatherlink.com 1.10,2013-05-19 16:03:00,
2013-05-19 09:18:00,55.4,49.0,30.28,North,5,0.0,-999.0,79,-99.99,,,0.00,weatherlink.com 1.10,2013-05-19 16:18:00,
2013-05-19 09:33:00,55.7,49.0,30.29,NW,326,0.0,-999.0,79,-99.99,,,0.00,weatherlink.com 1.10,2013-05-19 16:33:00,
2013-05-19 09:49:00,55.9,48.0,30.29,NNW,327,0.0,-999.0,75,-99.99,,,0.00,weatherlink.com 1.10,2013-05-19 16:49:00,
2013-05-19 10:03:00,55.9,49.0,30.29,NW,319,0.0,-999.0,78,-99.99,,,0.00,weatherlink.com 1.10,2013-05-19 17:03:00,
2013-05-19 10:18:00,56.3,49.0,30.29,SW,232,0.0,-999.0,76,-99.99,,,0.00,weatherlink.com 1.10,2013-05-19 17:18:00,
2013-05-19 10:32:00,57.0,48.0,30.29,SW,232,0.0,-999.0,72,-99.99,,,0.00,weatherlink.com 1.10,2013-05-19 17:32:00,
2013-05-19 10:47:00,57.0,50.0,30.29,North,360,0.0,-999.0,77,-99.99,,,0.00,weatherlink.com 1.10,2013-05-19 17:47:00,
2013-05-19 11:03:00,56.9,49.0,30.29,East,87,0.0,-999.0,75,-99.99,,,0.00,weatherlink.com 1.10,2013-05-19 18:03:00,
2013-05-19 11:18:00,58.3,50.0,30.29,NNE,32,0.0,-999.0,73,-99.99,,,0.00,weatherlink.com 1.10,2013-05-19 18:18:00,
2013-05-19 11:33:00,59.9,50.0,30.29,South,182,0.0,-999.0,71,-99.99,,,0.00,weatherlink.com 1.10,2013-05-19 18:33:00,
2013-05-19 11:48:00,59.8,51.0,30.28,NNE,19,0.0,-999.0,72,-99.99,,,0.00,weatherlink.com 1.10,2013-05-19 18:48:00,
2013-05-19 12:04:00,59.2,49.0,30.27,ENE,65,0.0,-999.0,68,-99.99,,,0.00,weatherlink.com 1.10,2013-05-19 19:04:00,
2013-05-19 12:18:00,59.6,48.0,30.27,NNE,13,0.0,-999.0,66,-99.99,,,0.00,weatherlink.com 1.10,2013-05-19 19:18:00,
2013-05-19 12:33:00,59.5,51.0,30.27,NW,322,0.0,-999.0,73,-99.99,,,0.00,weatherlink.com 1.10,2013-05-19 19:33:00,
2013-05-19 12:49:00,60.1,49.0,30.27,North,360,0.0,-999.0,68,-99.99,,,0.00,weatherlink.com 1.10,2013-05-19 19:49:00,
2013-05-19 13:03:00,62.4,49.0,30.27,NNE,29,0.0,-999.0,63,-99.99,,,0.00,weatherlink.com 1.10,2013-05-19 20:03:00,
2013-05-19 13:18:00,60.4,48.0,30.27,North,349,0.0,-999.0,64,-99.99,,,0.00,weatherlink.com 1.10,2013-05-19 20:18:00,
2013-05-19 13:33:00,59.9,48.0,30.27,ENE,57,0.0,-999.0,66,-99.99,,,0.00,weatherlink.com 1.10,2013-05-19 20:33:00,
2013-05-19 13:47:00,60.5,51.0,30.27,NE,49,0.0,-999.0,70,-99.99,,,0.00,weatherlink.com 1.10,2013-05-19 20:47:00,
2013-05-19 14:03:00,61.6,48.0,30.27,ESE,111,0.0,-999.0,62,-99.99,,,0.00,weatherlink.com 1.10,2013-05-19 21:03:00,
2013-05-19 14:18:00,61.8,48.0,30.27,ESE,111,0.0,-999.0,61,-99.99,,,0.00,weatherlink.com 1.10,2013-05-19 21:18:00,
2013-05-19 14:33:00,61.2,49.0,30.26,NE,56,0.0,-999.0,65,-99.99,,,0.00,weatherlink.com 1.10,2013-05-19 21:33:00,
2013-05-19 14:48:00,62.1,50.0,30.26,ENE,57,0.0,-999.0,64,-99.99,,,0.00,weatherlink.com 1.10,2013-05-19 21:48:00,
2013-05-19 15:03:00,61.8,50.0,30.26,NNE,29,0.0,-999.0,66,-99.99,,,0.00,weatherlink.com 1.10,2013-05-19 22:03:00,
2013-05-19 15:18:00,61.5,49.0,30.26,NNE,29,0.0,-999.0,64,-99.99,,,0.00,weatherlink.com 1.10,2013-05-19 22:18:00,
2013-05-19 15:34:00,62.4,49.0,30.26,East,84,0.0,-999.0,61,-99.99,,,0.00,weatherlink.com 1.10,2013-05-19 22:34:00,
2013-05-19 15:48:00,63.7,47.0,30.25,NE,42,7.0,-999.0,55,-99.99,,,0.00,weatherlink.com 1.10,2013-05-19 22:48:00,
2013-05-19 16:03:00,62.1,46.0,30.25,North,5,7.0,-999.0,57,-99.99,,,0.00,weatherlink.com 1.10,2013-05-19 23:03:00,
2013-05-19 16:17:00,62.9,47.0,30.24,NNE,24,0.0,-999.0,57,-99.99,,,0.00,weatherlink.com 1.10,2013-05-19 23:17:00,
2013-05-19 16:33:00,63.9,49.0,30.24,NNE,33,2.0,-999.0,59,-99.99,,,0.00,weatherlink.com 1.10,2013-05-19 23:33:00,
2013-05-19 16:48:00,63.5,48.0,30.24,NNE,20,1.0,-999.0,57,-99.99,,,0.00,weatherlink.com 1.10,2013-05-19 23:48:00,
2013-05-19 17:03:00,62.9,49.0,30.24,NNE,26,0.0,-999.0,61,-99.99,,,0.00,weatherlink.com 1.10,2013-05-20 00:03:00,
2013-05-19 17:18:00,64.3,48.0,30.24,NNE,28,4.0,-999.0,56,-99.99,,,0.00,weatherlink.com 1.10,2013-05-20 00:18:00,
2013-05-19 17:32:00,62.9,47.0,30.23,NE,43,1.0,-999.0,56,-99.99,,,0.00,weatherlink.com 1.10,2013-05-20 00:32:00,
2013-05-19 17:48:00,63.1,46.0,30.23,NE,40,3.0,-999.0,55,-99.99,,,0.00,weatherlink.com 1.10,2013-05-20 00:48:00,
2013-05-19 18:04:00,61.8,48.0,30.23,NNE,29,4.0,-999.0,62,-99.99,,,0.00,weatherlink.com 1.10,2013-05-20 01:04:00,
2013-05-19 18:18:00,61.3,48.0,30.23,NNE,15,4.0,-999.0,63,-99.99,,,0.00,weatherlink.com 1.10,2013-05-20 01:18:00,
2013-05-19 18:33:00,61.8,48.0,30.23,NNE,31,5.0,-999.0,62,-99.99,,,0.00,weatherlink.com 1.10,2013-05-20 01:33:00,
2013-05-19 18:48:00,61.3,48.0,30.23,NE,34,6.0,-999.0,63,-99.99,,,0.00,weatherlink.com 1.10,2013-05-20 01:48:00,
2013-05-19 19:04:00,60.5,49.0,30.22,NE,37,3.0,-999.0,65,-99.99,,,0.00,weatherlink.com 1.10,2013-05-20 02:04:00,
2013-05-19 19:18:00,60.2,49.0,30.22,NNE,26,3.0,-999.0,66,-99.99,,,0.00,weatherlink.com 1.10,2013-05-20 02:18:00,
2013-05-19 19:33:00,59.9,48.0,30.22,NNE,23,2.0,-999.0,66,-99.99,,,0.00,weatherlink.com 1.10,2013-05-20 02:33:00,
2013-05-19 19:47:00,59.8,48.0,30.22,NE,38,5.0,-999.0,66,-99.99,,,0.00,weatherlink.com 1.10,2013-05-20 02:47:00,
2013-05-19 20:03:00,59.2,49.0,30.22,NE,42,5.0,-999.0,68,-99.99,,,0.00,weatherlink.com 1.10,2013-05-20 03:03:00,
2013-05-19 20:18:00,58.6,48.0,30.22,NE,38,2.0,-999.0,69,-99.99,,,0.00,weatherlink.com 1.10,2013-05-20 03:18:00,
2013-05-19 20:33:00,58.1,48.0,30.22,NE,40,0.0,-999.0,69,-99.99,,,0.00,weatherlink.com 1.10,2013-05-20 03:33:00,
2013-05-19 20:48:00,57.6,47.0,30.22,NE,40,1.0,-999.0,69,-99.99,,,0.00,weatherlink.com 1.10,2013-05-20 03:48:00,
2013-05-19 21:04:00,57.0,47.0,30.21,NE,40,0.0,-999.0,70,-99.99,,,0.00,weatherlink.com 1.10,2013-05-20 04:04:00,
2013-05-19 21:18:00,56.6,47.0,30.22,NE,40,2.0,-999.0,71,-99.99,,,0.00,weatherlink.com 1.10,2013-05-20 04:18:00,
2013-05-19 21:33:00,56.9,48.0,30.22,NE,44,0.0,-999.0,71,-99.99,,,0.00,weatherlink.com 1.10,2013-05-20 04:33:00,
2013-05-19 21:47:00,56.6,48.0,30.22,NE,42,0.0,-999.0,72,-99.99,,,0.00,weatherlink.com 1.10,2013-05-20 04:47:00,
2013-05-19 22:03:00,55.6,48.0,30.22,NE,42,0.0,-999.0,76,-99.99,,,0.00,weatherlink.com 1.10,2013-05-20 05:03:00,
2013-05-19 22:18:00,54.8,47.0,30.22,NE,42,0.0,-999.0,76,-99.99,,,0.00,weatherlink.com 1.10,2013-05-20 05:18:00,
2013-05-19 22:32:00,54.8,47.0,30.22,NNE,28,0.0,-999.0,76,-99.99,,,0.00,weatherlink.com 1.10,2013-05-20 05:32:00,
2013-05-19 22:49:00,54.7,47.0,30.21,NNE,33,2.0,-999.0,76,-99.99,,,0.00,weatherlink.com 1.10,2013-05-20 05:49:00,
2013-05-19 23:03:00,55.1,47.0,30.21,NE,43,5.0,-999.0,73,-99.99,,,0.00,weatherlink.com 1.10,2013-05-20 06:03:00,
2013-05-19 23:18:00,55.0,46.0,30.21,NE,40,1.0,-999.0,73,-99.99,,,0.00,weatherlink.com 1.10,2013-05-20 06:18:00,
2013-05-19 23:32:00,54.7,46.0,30.21,NE,41,1.0,-999.0,73,-99.99,,,0.00,weatherlink.com 1.10,2013-05-20 06:32:00,
2013-05-19 23:47:00,54.1,46.0,30.21,NE,42,0.0,-999.0,74,-99.99,,,0.00,weatherlink.com 1.10,2013-05-20 06:47:00,